Time,TemperatureF,DewpointF,PressureIn,WindDirection,WindDirectionDegrees,WindSpeedMPH,WindSpeedGustMPH,Humidity,HourlyPrecipIn,Conditions,Clouds,dailyrainin,SoftwareType,DateUTC
2013-07-12 00:01:00,52.3,51.0,30.22,North,360,1.0,2.0,97,0.00,,,0.00,Rainwise IP-100,2013-07-12 04:01:00,
2013-07-12 00:02:00,52.2,51.0,30.22,North,360,1.0,2.0,97,0.00,,,0.00,Rainwise IP-100,2013-07-12 04:02:00,
2013-07-12 00:06:00,52.0,51.0,30.22,North,360,0.0,2.0,97,0.00,,,0.00,Rainwise IP-100,2013-07-12 04:06:00,
2013-07-12 00:08:00,52.0,51.0,30.22,North,360,1.0,2.0,97,0.00,,,0.00,Rainwise IP-100,2013-07-12 04:08:00,
2013-07-12 00:10:00,52.0,51.0,30.22,North,360,0.0,1.0,97,0.00,,,0.00,Rainwise IP-100,2013-07-12 04:10:00,
2013-07-12 00:15:00,52.1,51.0,30.22,North,360,0.0,0.0,97,0.00,,,0.00,Rainwise IP-100,2013-07-12 04:15:00,
2013-07-12 00:20:00,51.9,51.0,30.22,North,360,0.0,0.0,97,0.00,,,0.00,Rainwise IP-100,2013-07-12 04:20:00,
2013-07-12 00:25:00,51.9,51.0,30.22,North,360,1.0,2.0,97,0.00,,,0.00,Rainwise IP-100,2013-07-12 04:25:00,
2013-07-12 00:30:00,51.9,51.0,30.22,North,360,2.0,2.0,97,0.00,,,0.00,Rainwise IP-100,2013-07-12 04:30:00,
2013-07-12 00:35:00,51.7,51.0,30.22,North,360,2.0,2.0,97,0.00,,,0.00,Rainwise IP-100,2013-07-12 04:35:00,
2013-07-12 00:40:00,51.6,51.0,30.22,North,360,0.0,2.0,97,0.00,,,0.00,Rainwise IP-100,2013-07-12 04:40:00,
2013-07-12 00:45:00,51.5,51.0,30.21,ENE,67,0.0,2.0,97,0.00,,,0.00,Rainwise IP-100,2013-07-12 04:45:00,
2013-07-12 00:50:00,51.4,50.5,30.21,ENE,67,0.0,0.0,97,0.00,,,0.00,Rainwise IP-100,2013-07-12 04:50:00,
2013-07-12 00:56:00,51.6,51.0,30.21,ENE,67,0.0,0.0,97,0.00,,,0.00,Rainwise IP-100,2013-07-12 04:56:00,
2013-07-12 01:01:00,51.3,50.5,30.22,ENE,67,0.0,0.0,97,0.00,,,0.00,Rainwise IP-100,2013-07-12 05:01:00,
2013-07-12 01:06:00,51.1,50.5,30.22,ENE,67,0.0,0.0,97,0.00,,,0.00,Rainwise IP-100,2013-07-12 05:06:00,
2013-07-12 01:11:00,50.9,50.5,30.21,ENE,67,0.0,0.0,97,0.00,,,0.00,Rainwise IP-100,2013-07-12 05:11:00,
2013-07-12 01:16:00,50.7,50.0,30.22,ENE,67,0.0,0.0,97,0.00,,,0.00,Rainwise IP-100,2013-07-12 05:16:00,
2013-07-12 01:21:00,50.6,50.0,30.21,ENE,67,0.0,1.0,97,0.00,,,0.00,Rainwise IP-100,2013-07-12 05:21:00,
2013-07-12 01:26:00,50.7,50.0,30.21,West,270,0.0,2.0,97,0.00,,,0.00,Rainwise IP-100,2013-07-12 05:26:00,
2013-07-12 01:31:00,50.5,50.0,30.21,West,270,0.0,0.0,97,0.00,,,0.00,Rainwise IP-100,2013-07-12 05:31:00,
2013-07-12 01:36:00,50.2,49.0,30.21,West,270,0.0,2.0,97,0.00,,,0.00,Rainwise IP-100,2013-07-12 05:36:00,
2013-07-12 01:41:00,50.2,49.0,30.21,West,270,0.0,0.0,97,0.00,,,0.00,Rainwise IP-100,2013-07-12 05:41:00,
2013-07-12 01:46:00,50.0,49.0,30.21,West,270,0.0,0.0,97,0.00,,,0.00,Rainwise IP-100,2013-07-12 05:46:00,
2013-07-12 01:52:00,49.9,49.0,30.21,West,270,0.0,0.0,97,0.00,,,0.00,Rainwise IP-100,2013-07-12 05:52:00,
2013-07-12 01:57:00,50.0,49.0,30.22,West,270,1.0,2.0,97,0.00,,,0.00,Rainwise IP-100,2013-07-12 05:57:00,
2013-07-12 02:02:00,49.9,49.0,30.22,West,270,0.0,1.0,97,0.00,,,0.00,Rainwise IP-100,2013-07-12 06:02:00,
2013-07-12 02:07:00,49.7,49.0,30.22,West,270,0.0,0.0,97,0.00,,,0.00,Rainwise IP-100,2013-07-12 06:07:00,
2013-07-12 02:12:00,49.4,48.0,30.22,West,270,0.0,0.0,97,0.00,,,0.00,Rainwise IP-100,2013-07-12 06:12:00,
2013-07-12 02:17:00,49.2,48.0,30.22,West,270,0.0,0.0,97,0.00,,,0.00,Rainwise IP-100,2013-07-12 06:17:00,
2013-07-12 02:22:00,49.3,48.0,30.22,West,270,0.0,2.0,97,0.00,,,0.00,Rainwise IP-100,2013-07-12 06:22:00,
2013-07-12 02:27:00,49.3,48.0,30.22,West,270,0.0,0.0,97,0.00,,,0.00,Rainwise IP-100,2013-07-12 06:27:00,
2013-07-12 02:32:00,49.3,48.0,30.22,West,270,0.0,2.0,97,0.00,,,0.00,Rainwise IP-100,2013-07-12 06:32:00,
2013-07-12 02:37:00,49.0,48.0,30.22,West,270,0.0,0.0,97,0.00,,,0.00,Rainwise IP-100,2013-07-12 06:37:00,
2013-07-12 02:42:00,48.8,48.0,30.22,West,270,2.0,0.0,97,0.00,,,0.00,Rainwise IP-100,2013-07-12 06:42:00,
2013-07-12 02:47:00,48.9,48.0,30.22,West,270,0.0,2.0,97,0.00,,,0.00,Rainwise IP-100,2013-07-12 06:47:00,
2013-07-12 02:53:00,48.8,48.0,30.23,West,270,0.0,0.0,97,0.00,,,0.00,Rainwise IP-100,2013-07-12 06:53:00,
2013-07-12 02:58:00,48.7,48.0,30.23,West,270,0.0,0.0,97,0.00,,,0.00,Rainwise IP-100,2013-07-12 06:58:00,
2013-07-12 03:03:00,48.5,48.0,30.22,West,270,0.0,0.0,97,0.00,,,0.00,Rainwise IP-100,2013-07-12 07:03:00,
2013-07-12 03:08:00,48.5,48.0,30.23,West,270,0.0,0.0,97,0.00,,,0.00,Rainwise IP-100,2013-07-12 07:08:00,
2013-07-12 03:13:00,48.6,48.0,30.23,West,270,0.0,2.0,97,0.00,,,0.00,Rainwise IP-100,2013-07-12 07:13:00,
2013-07-12 03:18:00,48.3,47.5,30.23,West,270,0.0,0.0,97,0.00,,,0.00,Rainwise IP-100,2013-07-12 07:18:00,
2013-07-12 03:23:00,48.3,47.5,30.23,West,270,0.0,2.0,97,0.00,,,0.00,Rainwise IP-100,2013-07-12 07:23:00,
2013-07-12 03:28:00,47.9,47.5,30.23,West,270,0.0,0.0,97,0.00,,,0.00,Rainwise IP-100,2013-07-12 07:28:00,
2013-07-12 03:33:00,47.8,47.5,30.23,West,270,1.0,0.0,97,0.00,,,0.00,Rainwise IP-100,2013-07-12 07:33:00,
2013-07-12 03:38:00,47.8,47.5,30.23,West,270,1.0,2.0,97,0.00,,,0.00,Rainwise IP-100,2013-07-12 07:38:00,
2013-07-12 03:43:00,47.7,47.0,30.23,West,270,0.0,1.0,97,0.00,,,0.00,Rainwise IP-100,2013-07-12 07:43:00,
2013-07-12 03:48:00,47.6,47.0,30.24,West,270,0.0,2.0,97,0.00,,,0.00,Rainwise IP-100,2013-07-12 07:48:00,
2013-07-12 03:54:00,47.3,47.0,30.24,West,270,0.0,0.0,97,0.00,,,0.00,Rainwise IP-100,2013-07-12 07:54:00,
2013-07-12 03:59:00,47.4,47.0,30.24,West,270,0.0,2.0,97,0.00,,,0.00,Rainwise IP-100,2013-07-12 07:59:00,
2013-07-12 04:04:00,47.5,47.0,30.24,West,270,0.0,0.0,97,0.00,,,0.00,Rainwise IP-100,2013-07-12 08:04:00,
2013-07-12 04:09:00,47.5,47.0,30.23,West,270,1.0,2.0,97,0.00,,,0.00,Rainwise IP-100,2013-07-12 08:09:00,
2013-07-12 04:14:00,47.5,47.0,30.23,West,270,0.0,2.0,97,0.00,,,0.00,Rainwise IP-100,2013-07-12 08:14:00,
2013-07-12 04:19:00,47.1,46.0,30.24,West,270,0.0,0.0,97,0.00,,,0.00,Rainwise IP-100,2013-07-12 08:19:00,
2013-07-12 04:24:00,47.0,46.0,30.24,West,270,0.0,0.0,97,0.00,,,0.00,Rainwise IP-100,2013-07-12 08:24:00,
2013-07-12 04:29:00,47.5,47.0,30.25,West,270,1.0,2.0,97,0.00,,,0.00,Rainwise IP-100,2013-07-12 08:29:00,
2013-07-12 04:34:00,47.2,46.0,30.25,NE,45,0.0,2.0,97,0.00,,,0.00,Rainwise IP-100,2013-07-12 08:34:00,
2013-07-12 04:39:00,46.9,46.0,30.25,NE,45,0.0,0.0,97,0.00,,,0.00,Rainwise IP-100,2013-07-12 08:39:00,
2013-07-12 04:44:00,46.8,46.0,30.25,North,360,2.0,2.0,97,0.00,,,0.00,Rainwise IP-100,2013-07-12 08:44:00,
2013-07-12 04:49:00,47.0,46.0,30.25,North,360,0.0,2.0,97,0.00,,,0.00,Rainwise IP-100,2013-07-12 08:49:00,
2013-07-12 04:55:00,46.9,46.0,30.25,North,360,0.0,2.0,97,0.00,,,0.00,Rainwise IP-100,2013-07-12 08:55:00,
2013-07-12 05:00:00,46.8,46.0,30.25,North,360,0.0,0.0,97,0.00,,,0.00,Rainwise IP-100,2013-07-12 09:00:00,
2013-07-12 05:05:00,46.7,46.0,30.25,North,360,1.0,2.0,97,0.00,,,0.00,Rainwise IP-100,2013-07-12 09:05:00,
2013-07-12 05:10:00,46.9,46.0,30.25,NE,45,2.0,3.0,97,0.00,,,0.00,Rainwise IP-100,2013-07-12 09:10:00,
2013-07-12 05:15:00,47.3,47.0,30.25,WNW,292,0.0,3.0,97,0.00,,,0.00,Rainwise IP-100,2013-07-12 09:15:00,
2013-07-12 05:20:00,47.1,46.0,30.25,NW,315,2.0,2.0,97,0.00,,,0.00,Rainwise IP-100,2013-07-12 09:20:00,
2013-07-12 05:25:00,46.9,46.0,30.25,NW,315,0.0,2.0,97,0.00,,,0.00,Rainwise IP-100,2013-07-12 09:25:00,
2013-07-12 05:30:00,46.9,46.0,30.25,NW,315,1.0,2.0,97,0.00,,,0.00,Rainwise IP-100,2013-07-12 09:30:00,
2013-07-12 05:35:00,46.8,46.0,30.25,NW,315,0.0,2.0,97,0.00,,,0.00,Rainwise IP-100,2013-07-12 09:35:00,
2013-07-12 05:40:00,46.7,46.0,30.25,NW,315,0.0,0.0,97,0.00,,,0.00,Rainwise IP-100,2013-07-12 09:40:00,
2013-07-12 05:45:00,46.9,46.0,30.26,NW,315,0.0,0.0,97,0.00,,,0.00,Rainwise IP-100,2013-07-12 09:45:00,
2013-07-12 05:50:00,46.8,46.0,30.26,NW,315,0.0,0.0,97,0.00,,,0.00,Rainwise IP-100,2013-07-12 09:50:00,
2013-07-12 05:56:00,46.9,46.0,30.26,NW,315,2.0,0.0,97,0.00,,,0.00,Rainwise IP-100,2013-07-12 09:56:00,
2013-07-12 06:01:00,47.4,47.0,30.27,NW,315,0.0,2.0,97,0.00,,,0.00,Rainwise IP-100,2013-07-12 10:01:00,
2013-07-12 06:06:00,47.7,47.0,30.27,NW,315,0.0,2.0,97,0.00,,,0.00,Rainwise IP-100,2013-07-12 10:06:00,
2013-07-12 06:11:00,47.7,47.0,30.27,NW,315,1.0,2.0,97,0.00,,,0.00,Rainwise IP-100,2013-07-12 10:11:00,
2013-07-12 06:16:00,47.8,47.5,30.27,NW,315,0.0,1.0,97,0.00,,,0.00,Rainwise IP-100,2013-07-12 10:16:00,
2013-07-12 06:21:00,47.8,47.5,30.27,NW,315,0.0,0.0,97,0.00,,,0.00,Rainwise IP-100,2013-07-12 10:21:00,
2013-07-12 06:26:00,48.4,47.5,30.27,NW,315,0.0,2.0,97,0.00,,,0.00,Rainwise IP-100,2013-07-12 10:26:00,
2013-07-12 06:31:00,48.7,48.0,30.28,NW,315,0.0,0.0,97,0.00,,,0.00,Rainwise IP-100,2013-07-12 10:31:00,
2013-07-12 06:36:00,48.9,48.0,30.28,NW,315,0.0,0.0,97,0.00,,,0.00,Rainwise IP-100,2013-07-12 10:36:00,
2013-07-12 06:41:00,49.6,49.0,30.28,NW,315,0.0,0.0,97,0.00,,,0.00,Rainwise IP-100,2013-07-12 10:41:00,
2013-07-12 06:46:00,50.3,50.0,30.28,NW,315,0.0,0.0,97,0.00,,,0.00,Rainwise IP-100,2013-07-12 10:46:00,
2013-07-12 06:51:00,50.9,50.5,30.28,NW,315,0.0,0.0,97,0.00,,,0.00,Rainwise IP-100,2013-07-12 10:51:00,
2013-07-12 06:57:00,51.3,50.5,30.29,NW,315,0.0,0.0,97,0.00,,,0.00,Rainwise IP-100,2013-07-12 10:57:00,
2013-07-12 07:02:00,51.9,51.0,30.29,NW,315,0.0,0.0,97,0.00,,,0.00,Rainwise IP-100,2013-07-12 11:02:00,
2013-07-12 07:07:00,52.3,51.0,30.29,NW,315,0.0,0.0,97,0.00,,,0.00,Rainwise IP-100,2013-07-12 11:07:00,
2013-07-12 07:12:00,52.6,52.0,30.29,NW,315,0.0,0.0,97,0.00,,,0.00,Rainwise IP-100,2013-07-12 11:12:00,
2013-07-12 07:17:00,52.9,52.0,30.30,NW,315,0.0,0.0,97,0.00,,,0.00,Rainwise IP-100,2013-07-12 11:17:00,
2013-07-12 07:22:00,53.3,53.0,30.29,East,90,0.0,2.0,97,0.00,,,0.00,Rainwise IP-100,2013-07-12 11:22:00,
2013-07-12 07:27:00,54.0,53.5,30.30,East,90,0.0,0.0,97,0.00,,,0.00,Rainwise IP-100,2013-07-12 11:27:00,
2013-07-12 07:32:00,54.6,54.0,30.30,East,90,2.0,2.0,97,0.00,,,0.00,Rainwise IP-100,2013-07-12 11:32:00,
2013-07-12 07:37:00,55.4,54.5,30.31,SSE,157,2.0,2.0,97,0.00,,,0.00,Rainwise IP-100,2013-07-12 11:37:00,
2013-07-12 07:42:00,55.6,55.0,30.31,SE,135,1.0,3.0,97,0.00,,,0.00,Rainwise IP-100,2013-07-12 11:42:00,
2013-07-12 07:47:00,56.4,56.0,30.31,SSE,157,2.0,4.0,97,0.00,,,0.00,Rainwise IP-100,2013-07-12 11:47:00,
2013-07-12 07:53:00,56.7,56.0,30.31,SSE,157,1.0,3.0,97,0.00,,,0.00,Rainwise IP-100,2013-07-12 11:53:00,
2013-07-12 07:58:00,57.5,57.0,30.32,SE,135,1.0,2.0,97,0.00,,,0.00,Rainwise IP-100,2013-07-12 11:58:00,
2013-07-12 08:03:00,58.6,58.0,30.32,SE,135,0.0,2.0,98,0.00,,,0.00,Rainwise IP-100,2013-07-12 12:03:00,
2013-07-12 08:08:00,59.4,59.0,30.33,SE,135,0.0,1.0,98,0.00,,,0.00,Rainwise IP-100,2013-07-12 12:08:00,
2013-07-12 08:13:00,60.3,60.0,30.33,SE,135,1.0,2.0,98,0.00,,,0.00,Rainwise IP-100,2013-07-12 12:13:00,
2013-07-12 08:18:00,60.6,58.0,30.33,SE,135,0.0,2.0,92,0.00,,,0.00,Rainwise IP-100,2013-07-12 12:18:00,
2013-07-12 08:23:00,60.9,58.0,30.33,ESE,112,0.0,2.0,91,0.00,,,0.00,Rainwise IP-100,2013-07-12 12:23:00,
2013-07-12 08:28:00,61.7,59.0,30.33,East,90,2.0,2.0,90,0.00,,,0.00,Rainwise IP-100,2013-07-12 12:28:00,
2013-07-12 08:33:00,62.1,57.5,30.33,East,90,2.0,2.0,86,0.00,,,0.00,Rainwise IP-100,2013-07-12 12:33:00,
2013-07-12 08:38:00,62.1,58.0,30.33,East,90,0.0,2.0,88,0.00,,,0.00,Rainwise IP-100,2013-07-12 12:38:00,
2013-07-12 08:43:00,62.6,57.5,30.33,East,90,2.0,2.0,85,0.00,,,0.00,Rainwise IP-100,2013-07-12 12:43:00,
2013-07-12 08:48:00,62.8,57.5,30.33,East,90,1.0,2.0,82,0.00,,,0.00,Rainwise IP-100,2013-07-12 12:48:00,
2013-07-12 08:54:00,63.4,58.0,30.34,North,360,0.0,2.0,83,0.00,,,0.00,Rainwise IP-100,2013-07-12 12:54:00,
2013-07-12 08:59:00,64.1,57.0,30.34,NE,45,2.0,2.0,78,0.00,,,0.00,Rainwise IP-100,2013-07-12 12:59:00,
2013-07-12 09:04:00,64.4,56.5,30.34,East,90,1.0,2.0,75,0.00,,,0.00,Rainwise IP-100,2013-07-12 13:04:00,
2013-07-12 09:09:00,65.2,56.5,30.34,NNE,22,2.0,4.0,74,0.00,,,0.00,Rainwise IP-100,2013-07-12 13:09:00,
2013-07-12 09:14:00,65.8,58.0,30.35,North,360,2.0,3.0,76,0.00,,,0.00,Rainwise IP-100,2013-07-12 13:14:00,
2013-07-12 09:19:00,65.7,55.0,30.35,NE,45,2.0,6.0,70,0.00,,,0.00,Rainwise IP-100,2013-07-12 13:19:00,
2013-07-12 09:24:00,65.9,56.0,30.35,South,180,1.0,3.0,71,0.00,,,0.00,Rainwise IP-100,2013-07-12 13:24:00,
2013-07-12 09:29:00,66.6,56.5,30.35,NNW,337,2.0,4.0,70,0.00,,,0.00,Rainwise IP-100,2013-07-12 13:29:00,
2013-07-12 09:34:00,66.9,56.5,30.36,NNW,337,0.0,4.0,69,0.00,,,0.00,Rainwise IP-100,2013-07-12 13:34:00,
2013-07-12 09:39:00,66.9,56.5,30.36,NW,315,1.0,5.0,68,0.00,,,0.00,Rainwise IP-100,2013-07-12 13:39:00,
2013-07-12 09:44:00,67.3,56.5,30.36,WNW,292,1.0,5.0,68,0.00,,,0.00,Rainwise IP-100,2013-07-12 13:44:00,
2013-07-12 09:49:00,67.7,55.0,30.36,NE,45,7.0,7.0,65,0.00,,,0.00,Rainwise IP-100,2013-07-12 13:49:00,
2013-07-12 09:55:00,67.2,56.0,30.37,NNE,22,3.0,7.0,67,0.00,,,0.00,Rainwise IP-100,2013-07-12 13:55:00,
2013-07-12 10:00:00,67.7,56.0,30.36,NE,45,2.0,7.0,66,0.00,,,0.00,Rainwise IP-100,2013-07-12 14:00:00,
2013-07-12 10:05:00,67.5,55.0,30.36,NE,45,6.0,8.0,65,0.00,,,0.00,Rainwise IP-100,2013-07-12 14:05:00,
2013-07-12 10:10:00,67.8,55.0,30.36,NW,315,4.0,7.0,64,0.00,,,0.00,Rainwise IP-100,2013-07-12 14:10:00,
2013-07-12 10:15:00,67.9,56.5,30.36,NW,315,4.0,7.0,67,0.00,,,0.00,Rainwise IP-100,2013-07-12 14:15:00,
2013-07-12 10:20:00,68.3,56.5,30.36,North,360,2.0,6.0,65,0.00,,,0.00,Rainwise IP-100,2013-07-12 14:20:00,
2013-07-12 10:25:00,68.7,56.5,30.36,NNW,337,4.0,6.0,65,0.00,,,0.00,Rainwise IP-100,2013-07-12 14:25:00,
2013-07-12 10:30:00,68.9,55.0,30.36,NNE,22,2.0,6.0,62,0.00,,,0.00,Rainwise IP-100,2013-07-12 14:30:00,
2013-07-12 10:35:00,68.9,55.0,30.36,West,270,4.0,6.0,62,0.00,,,0.00,Rainwise IP-100,2013-07-12 14:35:00,
2013-07-12 10:40:00,69.2,56.0,30.37,North,360,1.0,6.0,63,0.00,,,0.00,Rainwise IP-100,2013-07-12 14:40:00,
2013-07-12 10:45:00,69.2,56.0,30.36,NE,45,5.0,6.0,63,0.00,,,0.00,Rainwise IP-100,2013-07-12 14:45:00,
2013-07-12 10:51:00,69.5,57.0,30.37,NE,45,3.0,7.0,64,0.00,,,0.00,Rainwise IP-100,2013-07-12 14:51:00,
2013-07-12 10:56:00,70.2,56.0,30.37,NE,45,2.0,6.0,61,0.00,,,0.00,Rainwise IP-100,2013-07-12 14:56:00,
2013-07-12 11:01:00,69.6,56.0,30.37,NE,45,3.0,8.0,62,0.00,,,0.00,Rainwise IP-100,2013-07-12 15:01:00,
2013-07-12 11:06:00,69.8,54.0,30.37,South,180,4.0,6.0,57,0.00,,,0.00,Rainwise IP-100,2013-07-12 15:06:00,
2013-07-12 11:11:00,69.8,55.0,30.37,NNW,337,1.0,9.0,60,0.00,,,0.00,Rainwise IP-100,2013-07-12 15:11:00,
2013-07-12 11:16:00,70.1,55.0,30.37,NNE,22,6.0,9.0,59,0.00,,,0.00,Rainwise IP-100,2013-07-12 15:16:00,
2013-07-12 11:21:00,70.1,55.0,30.37,NE,45,4.0,7.0,60,0.00,,,0.00,Rainwise IP-100,2013-07-12 15:21:00,
2013-07-12 11:26:00,70.3,57.0,30.37,North,360,4.0,8.0,62,0.00,,,0.00,Rainwise IP-100,2013-07-12 15:26:00,
2013-07-12 11:31:00,70.4,57.0,30.37,North,360,7.0,9.0,63,0.00,,,0.00,Rainwise IP-100,2013-07-12 15:31:00,
2013-07-12 11:36:00,70.4,56.5,30.37,NE,45,2.0,10.0,61,0.00,,,0.00,Rainwise IP-100,2013-07-12 15:36:00,
2013-07-12 11:41:00,70.9,54.5,30.37,North,360,4.0,7.0,56,0.00,,,0.00,Rainwise IP-100,2013-07-12 15:41:00,
2013-07-12 11:46:00,70.9,56.0,30.37,NE,45,3.0,10.0,59,0.00,,,0.00,Rainwise IP-100,2013-07-12 15:46:00,
2013-07-12 11:52:00,70.9,56.0,30.37,NNE,22,2.0,7.0,59,0.00,,,0.00,Rainwise IP-100,2013-07-12 15:52:00,
2013-07-12 11:57:00,71.4,56.0,30.37,NE,45,3.0,7.0,59,0.00,,,0.00,Rainwise IP-100,2013-07-12 15:57:00,
2013-07-12 12:02:00,71.6,55.0,30.37,North,360,1.0,8.0,56,0.00,,,0.00,Rainwise IP-100,2013-07-12 16:02:00,
2013-07-12 12:07:00,70.9,56.0,30.37,NE,45,1.0,10.0,59,0.00,,,0.00,Rainwise IP-100,2013-07-12 16:07:00,
2013-07-12 12:12:00,71.4,55.0,30.37,NE,45,4.0,8.0,57,0.00,,,0.00,Rainwise IP-100,2013-07-12 16:12:00,
2013-07-12 12:17:00,71.6,55.0,30.37,NNW,337,1.0,7.0,57,0.00,,,0.00,Rainwise IP-100,2013-07-12 16:17:00,
2013-07-12 12:22:00,71.8,56.5,30.37,NW,315,5.0,7.0,59,0.00,,,0.00,Rainwise IP-100,2013-07-12 16:22:00,
2013-07-12 12:27:00,71.8,56.0,30.37,NNE,22,2.0,6.0,58,0.00,,,0.00,Rainwise IP-100,2013-07-12 16:27:00,
2013-07-12 12:32:00,72.4,56.0,30.37,North,360,2.0,7.0,56,0.00,,,0.00,Rainwise IP-100,2013-07-12 16:32:00,
2013-07-12 12:37:00,72.5,56.0,30.37,WNW,292,2.0,8.0,56,0.00,,,0.00,Rainwise IP-100,2013-07-12 16:37:00,
2013-07-12 12:42:00,72.5,58.0,30.37,East,90,2.0,8.0,60,0.00,,,0.00,Rainwise IP-100,2013-07-12 16:42:00,
2013-07-12 12:47:00,72.6,56.5,30.37,NE,45,3.0,7.0,57,0.00,,,0.00,Rainwise IP-100,2013-07-12 16:47:00,
2013-07-12 12:54:00,72.3,56.5,30.36,NE,45,3.0,9.0,58,0.00,,,0.00,Rainwise IP-100,2013-07-12 16:54:00,
2013-07-12 13:00:00,72.2,56.5,30.36,North,360,2.0,7.0,58,0.00,,,0.00,Rainwise IP-100,2013-07-12 17:00:00,
2013-07-12 13:05:00,72.7,58.0,30.36,NNW,337,3.0,7.0,60,0.00,,,0.00,Rainwise IP-100,2013-07-12 17:05:00,
2013-07-12 13:10:00,72.8,59.5,30.35,NE,45,5.0,7.0,63,0.00,,,0.00,Rainwise IP-100,2013-07-12 17:10:00,
2013-07-12 13:15:00,73.3,57.5,30.35,NNE,22,1.0,5.0,58,0.00,,,0.00,Rainwise IP-100,2013-07-12 17:15:00,
2013-07-12 13:20:00,73.4,58.0,30.35,North,360,1.0,6.0,59,0.00,,,0.00,Rainwise IP-100,2013-07-12 17:20:00,
2013-07-12 13:25:00,73.0,57.5,30.35,NE,45,6.0,6.0,58,0.00,,,0.00,Rainwise IP-100,2013-07-12 17:25:00,
2013-07-12 13:32:00,73.3,57.0,30.35,NE,45,2.0,7.0,57,0.00,,,0.00,Rainwise IP-100,2013-07-12 17:32:00,
2013-07-12 13:37:00,73.3,58.0,30.35,East,90,1.0,6.0,59,0.00,,,0.00,Rainwise IP-100,2013-07-12 17:37:00,
2013-07-12 13:42:00,73.6,57.0,30.36,NW,315,2.0,7.0,56,0.00,,,0.00,Rainwise IP-100,2013-07-12 17:42:00,
2013-07-12 13:47:00,73.9,60.0,30.36,NE,45,2.0,7.0,61,0.00,,,0.00,Rainwise IP-100,2013-07-12 17:47:00,
2013-07-12 13:54:00,73.7,56.0,30.36,NE,45,6.0,7.0,53,0.00,,,0.00,Rainwise IP-100,2013-07-12 17:54:00,
2013-07-12 13:59:00,73.7,56.5,30.36,NE,45,7.0,7.0,55,0.00,,,0.00,Rainwise IP-100,2013-07-12 17:59:00,
2013-07-12 14:04:00,74.1,54.5,30.36,NW,315,6.0,7.0,51,0.00,,,0.00,Rainwise IP-100,2013-07-12 18:04:00,
2013-07-12 14:09:00,74.5,56.5,30.36,NE,45,4.0,7.0,53,0.00,,,0.00,Rainwise IP-100,2013-07-12 18:09:00,
2013-07-12 14:14:00,74.6,56.5,30.36,NE,45,1.0,4.0,53,0.00,,,0.00,Rainwise IP-100,2013-07-12 18:14:00,
2013-07-12 14:19:00,74.3,56.5,30.36,ENE,67,2.0,6.0,53,0.00,,,0.00,Rainwise IP-100,2013-07-12 18:19:00,
2013-07-12 14:24:00,74.7,56.0,30.37,ENE,67,2.0,5.0,52,0.00,,,0.00,Rainwise IP-100,2013-07-12 18:24:00,
2013-07-12 14:29:00,74.5,55.0,30.37,West,270,1.0,5.0,51,0.00,,,0.00,Rainwise IP-100,2013-07-12 18:29:00,
2013-07-12 14:34:00,75.1,55.0,30.37,ESE,112,2.0,6.0,50,0.00,,,0.00,Rainwise IP-100,2013-07-12 18:34:00,
2013-07-12 14:39:00,74.9,56.0,30.37,North,360,4.0,5.0,51,0.00,,,0.00,Rainwise IP-100,2013-07-12 18:39:00,
2013-07-12 14:45:00,74.9,54.5,30.37,SW,225,2.0,7.0,49,0.00,,,0.00,Rainwise IP-100,2013-07-12 18:45:00,
2013-07-12 14:50:00,75.5,56.5,30.37,NE,45,2.0,6.0,52,0.00,,,0.00,Rainwise IP-100,2013-07-12 18:50:00,
2013-07-12 14:56:00,75.8,56.5,30.37,South,180,2.0,7.0,51,0.00,,,0.00,Rainwise IP-100,2013-07-12 18:56:00,
2013-07-12 15:01:00,75.9,56.0,30.37,NNE,22,1.0,2.0,50,0.00,,,0.00,Rainwise IP-100,2013-07-12 19:01:00,
2013-07-12 15:06:00,75.9,55.0,30.37,NNW,337,2.0,9.0,49,0.00,,,0.00,Rainwise IP-100,2013-07-12 19:06:00,
2013-07-12 15:11:00,76.3,56.5,30.37,North,360,6.0,6.0,50,0.00,,,0.00,Rainwise IP-100,2013-07-12 19:11:00,
2013-07-12 15:16:00,75.9,57.0,30.37,NE,45,4.0,7.0,52,0.00,,,0.00,Rainwise IP-100,2013-07-12 19:16:00,
2013-07-12 15:22:00,75.3,57.0,30.37,North,360,2.0,8.0,53,0.00,,,0.00,Rainwise IP-100,2013-07-12 19:22:00,
2013-07-12 15:27:00,75.8,57.5,30.37,East,90,2.0,7.0,53,0.00,,,0.00,Rainwise IP-100,2013-07-12 19:27:00,
2013-07-12 15:32:00,75.5,56.0,30.37,NNE,22,4.0,7.0,51,0.00,,,0.00,Rainwise IP-100,2013-07-12 19:32:00,
2013-07-12 15:38:00,75.5,57.0,30.37,NNE,22,2.0,11.0,53,0.00,,,0.00,Rainwise IP-100,2013-07-12 19:38:00,
2013-07-12 15:44:00,75.8,57.0,30.37,NE,45,4.0,8.0,52,0.00,,,0.00,Rainwise IP-100,2013-07-12 19:44:00,
2013-07-12 15:49:00,75.2,56.0,30.37,NE,45,3.0,7.0,51,0.00,,,0.00,Rainwise IP-100,2013-07-12 19:49:00,
2013-07-12 15:54:00,74.8,56.0,30.37,North,360,1.0,11.0,52,0.00,,,0.00,Rainwise IP-100,2013-07-12 19:54:00,
2013-07-12 15:59:00,75.2,57.0,30.37,NE,45,4.0,7.0,53,0.00,,,0.00,Rainwise IP-100,2013-07-12 19:59:00,
2013-07-12 16:04:00,75.9,57.0,30.37,NNE,22,2.0,9.0,52,0.00,,,0.00,Rainwise IP-100,2013-07-12 20:04:00,
2013-07-12 16:09:00,76.1,57.0,30.37,South,180,1.0,9.0,52,0.00,,,0.00,Rainwise IP-100,2013-07-12 20:09:00,
2013-07-12 16:14:00,75.5,57.5,30.37,NE,45,4.0,6.0,54,0.00,,,0.00,Rainwise IP-100,2013-07-12 20:14:00,
2013-07-12 16:19:00,74.6,58.0,30.37,North,360,4.0,7.0,56,0.00,,,0.00,Rainwise IP-100,2013-07-12 20:19:00,
2013-07-12 16:24:00,74.7,57.0,30.36,NE,45,6.0,6.0,54,0.00,,,0.00,Rainwise IP-100,2013-07-12 20:24:00,
2013-07-12 16:29:00,74.8,57.0,30.36,NE,45,3.0,7.0,54,0.00,,,0.00,Rainwise IP-100,2013-07-12 20:29:00,
2013-07-12 16:35:00,74.8,56.5,30.37,East,90,1.0,9.0,53,0.00,,,0.00,Rainwise IP-100,2013-07-12 20:35:00,
2013-07-12 16:41:00,75.0,57.5,30.37,NNE,22,7.0,11.0,55,0.00,,,0.00,Rainwise IP-100,2013-07-12 20:41:00,
2013-07-12 16:46:00,74.7,58.0,30.37,NW,315,4.0,10.0,56,0.00,,,0.00,Rainwise IP-100,2013-07-12 20:46:00,
2013-07-12 16:51:00,74.2,58.0,30.37,North,360,4.0,11.0,57,0.00,,,0.00,Rainwise IP-100,2013-07-12 20:51:00,
2013-07-12 16:56:00,74.2,59.0,30.37,North,360,7.0,9.0,58,0.00,,,0.00,Rainwise IP-100,2013-07-12 20:56:00,
2013-07-12 17:01:00,74.2,59.5,30.37,North,360,5.0,10.0,59,0.00,,,0.00,Rainwise IP-100,2013-07-12 21:01:00,
2013-07-12 17:06:00,74.2,60.0,30.37,East,90,0.0,11.0,60,0.00,,,0.00,Rainwise IP-100,2013-07-12 21:06:00,
2013-07-12 17:11:00,74.1,57.5,30.37,East,90,1.0,7.0,57,0.00,,,0.00,Rainwise IP-100,2013-07-12 21:11:00,
2013-07-12 17:16:00,73.3,59.5,30.37,NE,45,3.0,7.0,61,0.00,,,0.00,Rainwise IP-100,2013-07-12 21:16:00,
2013-07-12 17:21:00,72.8,58.0,30.37,North,360,8.0,9.0,61,0.00,,,0.00,Rainwise IP-100,2013-07-12 21:21:00,
2013-07-12 17:26:00,72.5,57.5,30.37,North,360,5.0,12.0,59,0.00,,,0.00,Rainwise IP-100,2013-07-12 21:26:00,
2013-07-12 17:31:00,72.5,57.5,30.37,NE,45,4.0,9.0,59,0.00,,,0.00,Rainwise IP-100,2013-07-12 21:31:00,
2013-07-12 17:37:00,72.4,58.0,30.37,NNE,22,4.0,8.0,61,0.00,,,0.00,Rainwise IP-100,2013-07-12 21:37:00,
2013-07-12 17:43:00,72.9,57.5,30.37,NNE,22,0.0,7.0,59,0.00,,,0.00,Rainwise IP-100,2013-07-12 21:43:00,
2013-07-12 17:48:00,73.1,57.5,30.37,ENE,67,1.0,11.0,58,0.00,,,0.00,Rainwise IP-100,2013-07-12 21:48:00,
2013-07-12 17:53:00,73.6,57.5,30.37,North,360,1.0,6.0,57,0.00,,,0.00,Rainwise IP-100,2013-07-12 21:53:00,
2013-07-12 17:58:00,73.6,59.0,30.37,North,360,9.0,9.0,59,0.00,,,0.00,Rainwise IP-100,2013-07-12 21:58:00,
2013-07-12 18:03:00,73.6,57.0,30.37,West,270,1.0,9.0,56,0.00,,,0.00,Rainwise IP-100,2013-07-12 22:03:00,
2013-07-12 18:08:00,73.3,57.5,30.37,NE,45,3.0,6.0,58,0.00,,,0.00,Rainwise IP-100,2013-07-12 22:08:00,
2013-07-12 18:15:00,72.9,59.0,30.37,North,360,1.0,7.0,61,0.00,,,0.00,Rainwise IP-100,2013-07-12 22:15:00,
2013-07-12 18:21:00,72.8,57.0,30.37,North,360,3.0,7.0,58,0.00,,,0.00,Rainwise IP-100,2013-07-12 22:21:00,
2013-07-12 18:26:00,72.7,57.5,30.37,NE,45,6.0,7.0,59,0.00,,,0.00,Rainwise IP-100,2013-07-12 22:26:00,
2013-07-12 18:31:00,72.5,57.5,30.37,NNE,22,2.0,10.0,59,0.00,,,0.00,Rainwise IP-100,2013-07-12 22:31:00,
2013-07-12 18:37:00,72.5,58.0,30.37,NW,315,2.0,5.0,60,0.00,,,0.00,Rainwise IP-100,2013-07-12 22:37:00,
2013-07-12 18:42:00,72.5,58.0,30.37,North,360,2.0,5.0,60,0.00,,,0.00,Rainwise IP-100,2013-07-12 22:42:00,
2013-07-12 18:47:00,72.3,57.5,30.37,North,360,2.0,7.0,60,0.00,,,0.00,Rainwise IP-100,2013-07-12 22:47:00,
2013-07-12 18:52:00,72.2,58.0,30.37,North,360,2.0,4.0,61,0.00,,,0.00,Rainwise IP-100,2013-07-12 22:52:00,
2013-07-12 18:57:00,71.6,57.5,30.37,NE,45,4.0,4.0,62,0.00,,,0.00,Rainwise IP-100,2013-07-12 22:57:00,
2013-07-12 19:02:00,70.6,58.0,30.37,North,360,1.0,6.0,65,0.00,,,0.00,Rainwise IP-100,2013-07-12 23:02:00,
2013-07-12 19:07:00,69.8,57.5,30.37,NNW,337,2.0,4.0,66,0.00,,,0.00,Rainwise IP-100,2013-07-12 23:07:00,
2013-07-12 19:12:00,69.2,57.5,30.36,North,360,2.0,6.0,67,0.00,,,0.00,Rainwise IP-100,2013-07-12 23:12:00,
2013-07-12 19:17:00,68.7,58.0,30.36,North,360,2.0,4.0,70,0.00,,,0.00,Rainwise IP-100,2013-07-12 23:17:00,
2013-07-12 19:22:00,68.1,57.5,30.36,North,360,1.0,4.0,70,0.00,,,0.00,Rainwise IP-100,2013-07-12 23:22:00,
2013-07-12 19:27:00,67.4,59.5,30.36,North,360,2.0,3.0,75,0.00,,,0.00,Rainwise IP-100,2013-07-12 23:27:00,
2013-07-12 19:33:00,66.8,58.0,30.36,North,360,1.0,3.0,74,0.00,,,0.00,Rainwise IP-100,2013-07-12 23:33:00,
2013-07-12 19:39:00,66.7,57.5,30.36,NNW,337,1.0,3.0,72,0.00,,,0.00,Rainwise IP-100,2013-07-12 23:39:00,
2013-07-12 19:44:00,66.3,58.0,30.36,North,360,0.0,2.0,76,0.00,,,0.00,Rainwise IP-100,2013-07-12 23:44:00,
2013-07-12 19:50:00,65.9,57.0,30.36,North,360,2.0,3.0,74,0.00,,,0.00,Rainwise IP-100,2013-07-12 23:50:00,
2013-07-12 19:55:00,65.5,59.0,30.36,North,360,0.0,2.0,79,0.00,,,0.00,Rainwise IP-100,2013-07-12 23:55:00,
2013-07-12 20:01:00,65.1,58.0,30.36,NW,315,1.0,2.0,79,0.00,,,0.00,Rainwise IP-100,2013-07-13 00:01:00,
2013-07-12 20:06:00,64.4,57.5,30.36,NW,315,2.0,2.0,79,0.00,,,0.00,Rainwise IP-100,2013-07-13 00:06:00,
2013-07-12 20:11:00,63.9,58.0,30.36,NW,315,2.0,2.0,82,0.00,,,0.00,Rainwise IP-100,2013-07-13 00:11:00,
2013-07-12 20:16:00,63.4,58.0,30.36,NW,315,0.0,2.0,83,0.00,,,0.00,Rainwise IP-100,2013-07-13 00:16:00,
2013-07-12 20:21:00,62.6,57.5,30.36,NW,315,2.0,2.0,85,0.00,,,0.00,Rainwise IP-100,2013-07-13 00:21:00,
2013-07-12 20:26:00,61.9,57.5,30.36,NW,315,0.0,2.0,86,0.00,,,0.00,Rainwise IP-100,2013-07-13 00:26:00,
2013-07-12 20:32:00,61.4,57.5,30.35,NW,315,0.0,2.0,87,0.00,,,0.00,Rainwise IP-100,2013-07-13 00:32:00,
2013-07-12 20:37:00,60.8,58.0,30.36,NW,315,1.0,2.0,90,0.00,,,0.00,Rainwise IP-100,2013-07-13 00:37:00,
2013-07-12 20:43:00,60.3,57.0,30.36,NW,315,1.0,2.0,89,0.00,,,0.00,Rainwise IP-100,2013-07-13 00:43:00,
2013-07-12 20:49:00,59.9,57.5,30.36,NW,315,0.0,2.0,92,0.00,,,0.00,Rainwise IP-100,2013-07-13 00:49:00,
2013-07-12 20:55:00,59.2,56.5,30.36,NW,315,0.0,0.0,92,0.00,,,0.00,Rainwise IP-100,2013-07-13 00:55:00,
2013-07-12 21:00:00,58.6,57.5,30.36,NW,315,0.0,2.0,95,0.00,,,0.00,Rainwise IP-100,2013-07-13 01:00:00,
2013-07-12 21:05:00,58.1,57.0,30.36,NW,315,1.0,2.0,96,0.00,,,0.00,Rainwise IP-100,2013-07-13 01:05:00,
2013-07-12 21:10:00,57.6,57.0,30.37,NW,315,0.0,2.0,97,0.00,,,0.00,Rainwise IP-100,2013-07-13 01:10:00,
2013-07-12 21:15:00,57.3,56.5,30.37,NW,315,0.0,2.0,96,0.00,,,0.00,Rainwise IP-100,2013-07-13 01:15:00,
2013-07-12 21:20:00,56.9,56.5,30.37,NW,315,2.0,2.0,97,0.00,,,0.00,Rainwise IP-100,2013-07-13 01:20:00,
2013-07-12 21:25:00,56.6,56.0,30.37,NW,315,2.0,2.0,97,0.00,,,0.00,Rainwise IP-100,2013-07-13 01:25:00,
2013-07-12 21:30:00,56.4,56.0,30.37,NW,315,2.0,2.0,97,0.00,,,0.00,Rainwise IP-100,2013-07-13 01:30:00,
2013-07-12 21:36:00,56.3,56.0,30.37,NW,315,0.0,2.0,97,0.00,,,0.00,Rainwise IP-100,2013-07-13 01:36:00,
2013-07-12 21:41:00,56.1,55.0,30.37,NW,315,1.0,2.0,97,0.00,,,0.00,Rainwise IP-100,2013-07-13 01:41:00,
2013-07-12 21:46:00,55.9,55.0,30.37,NW,315,0.0,2.0,97,0.00,,,0.00,Rainwise IP-100,2013-07-13 01:46:00,
2013-07-12 21:51:00,55.9,55.0,30.37,NW,315,0.0,2.0,97,0.00,,,0.00,Rainwise IP-100,2013-07-13 01:51:00,
2013-07-12 21:56:00,55.8,55.0,30.37,NW,315,0.0,1.0,97,0.00,,,0.00,Rainwise IP-100,2013-07-13 01:56:00,
2013-07-12 22:02:00,55.7,55.0,30.37,NW,315,0.0,2.0,97,0.00,,,0.00,Rainwise IP-100,2013-07-13 02:02:00,
2013-07-12 22:07:00,55.6,55.0,30.37,NW,315,1.0,2.0,97,0.00,,,0.00,Rainwise IP-100,2013-07-13 02:07:00,
2013-07-12 22:12:00,55.4,54.5,30.37,NW,315,2.0,2.0,97,0.00,,,0.00,Rainwise IP-100,2013-07-13 02:12:00,
2013-07-12 22:17:00,55.3,54.5,30.37,NW,315,1.0,2.0,97,0.00,,,0.00,Rainwise IP-100,2013-07-13 02:17:00,
2013-07-12 22:23:00,55.4,54.5,30.37,NW,315,0.0,1.0,97,0.00,,,0.00,Rainwise IP-100,2013-07-13 02:23:00,
2013-07-12 22:28:00,55.1,54.5,30.37,NW,315,0.0,0.0,97,0.00,,,0.00,Rainwise IP-100,2013-07-13 02:28:00,
2013-07-12 22:35:00,54.7,54.0,30.37,NW,315,2.0,0.0,97,0.00,,,0.00,Rainwise IP-100,2013-07-13 02:35:00,
2013-07-12 22:40:00,54.4,54.0,30.37,NW,315,2.0,2.0,97,0.00,,,0.00,Rainwise IP-100,2013-07-13 02:40:00,
2013-07-12 22:46:00,54.3,54.0,30.37,NW,315,0.0,2.0,97,0.00,,,0.00,Rainwise IP-100,2013-07-13 02:46:00,
2013-07-12 22:51:00,54.3,54.0,30.37,NW,315,0.0,0.0,97,0.00,,,0.00,Rainwise IP-100,2013-07-13 02:51:00,
2013-07-12 22:56:00,54.1,53.5,30.37,NW,315,0.0,2.0,97,0.00,,,0.00,Rainwise IP-100,2013-07-13 02:56:00,
2013-07-12 23:01:00,53.9,53.5,30.37,NW,315,0.0,2.0,97,0.00,,,0.00,Rainwise IP-100,2013-07-13 03:01:00,
2013-07-12 23:06:00,54.1,53.5,30.37,NW,315,1.0,2.0,97,0.00,,,0.00,Rainwise IP-100,2013-07-13 03:06:00,
2013-07-12 23:11:00,53.8,53.5,30.38,NW,315,1.0,2.0,97,0.00,,,0.00,Rainwise IP-100,2013-07-13 03:11:00,
2013-07-12 23:16:00,53.5,53.0,30.38,NW,315,0.0,2.0,97,0.00,,,0.00,Rainwise IP-100,2013-07-13 03:16:00,
2013-07-12 23:24:00,53.6,53.0,30.38,NW,315,0.0,0.0,97,0.00,,,0.00,Rainwise IP-100,2013-07-13 03:24:00,
2013-07-12 23:30:00,53.3,53.0,30.38,NW,315,0.0,0.0,97,0.00,,,0.00,Rainwise IP-100,2013-07-13 03:30:00,
2013-07-12 23:36:00,53.1,52.0,30.39,NW,315,2.0,2.0,97,0.00,,,0.00,Rainwise IP-100,2013-07-13 03:36:00,
2013-07-12 23:41:00,52.9,52.0,30.39,NW,315,0.0,2.0,97,0.00,,,0.00,Rainwise IP-100,2013-07-13 03:41:00,
2013-07-12 23:47:00,52.8,52.0,30.39,NW,315,2.0,2.0,97,0.00,,,0.00,Rainwise IP-100,2013-07-13 03:47:00,
2013-07-12 23:53:00,52.7,52.0,30.39,NW,315,1.0,2.0,97,0.00,,,0.00,Rainwise IP-100,2013-07-13 03:53:00,
2013-07-12 23:58:00,52.7,52.0,30.38,NW,315,1.0,2.0,97,0.00,,,0.00,Rainwise IP-100,2013-07-13 03:58:00,